Chillicothe, MO

5:14 PM CST on February 23, 2017 (GMT -0600)
Chillicothe

Weather History for KCDJ - February, 2013

Change the Weather History Date:

Thursday, February 7, 2013

  Actual Average (KIRK) Record (KIRK)
Temperature  
Mean Temperature 42 °F -  
Max Temperature 51 °F 33 °F 68 °F (2009)
Min Temperature 32 °F 13 °F -17 °F (2014)
Degree Days  
Heating Degree Days 22    
Moisture  
Dew Point 37 °F    
Average Humidity 82    
Maximum Humidity 93    
Minimum Humidity 54    
Precipitation  
Precipitation 0.45 in - - ()
Sea Level Pressure  
Sea Level Pressure 30.01 in    
Wind  
Wind Speed 8 mph (NW)    
Max Wind Speed 14 mph    
Max Gust Speed 24 mph    
Averages and records for this station are not official NWS values.
T = Trace of Precipitation, MM = Missing Value Source: NWS Daily Summary

Daily Weather History Graph

Daily Weather History Graph

Search for Another Location

Airport or City:

Trip Planner

Search our weather history database for the weather conditions in past years. The results will help you decide how hot, cold, wet, or windy it might be!

Date:

Astronomy

Feb. 07, 2013 Rise Set
Actual Time 7:16 AM CST 5:41 PM CST
Civil Twilight 6:47 AM CST 6:09 PM CST
Nautical Twilight 6:15 AM CST 6:41 PM CST
Astronomical Twilight 5:44 AM CST 7:13 PM CST
Moon 4:55 AM CST (2/7) 3:06 PM CST (2/7)
Length of Visible Light 11h 21m
Length of Day
10h 25m
Waning Crescent, 9% of the Moon is Illuminated
Feb 7
Waning Crescent
Feb 10
New
Feb 17
First Quarter
Feb 25
Full
Mar 4
Last Quarter

Hourly Weather History & Observations

Time (CST) Temp. Windchill Dew Point Humidity Pressure Visibility Wind Dir Wind Speed Gust Speed Precip Events Conditions
12:52 AM 51.1 °F - 35.1 °F 54% 29.92 in - South 13.8 mph - N/A   Unknown
1:52 AM 50.0 °F - 36.0 °F 59% 29.93 in - SSW 6.9 mph - N/A   Unknown
2:52 AM 46.9 °F - 39.9 °F 77% 29.92 in - South 10.4 mph - 0.02 in   Unknown
3:52 AM 46.0 °F 42.5 °F 41.0 °F 83% 29.91 in - South 6.9 mph - N/A   Unknown
4:52 AM 45.0 °F 42.6 °F 41.0 °F 86% 29.92 in - ESE 4.6 mph - N/A   Unknown
5:52 AM 45.0 °F 43.5 °F 39.9 °F 82% 29.92 in - ESE 3.5 mph - N/A   Unknown
6:52 AM 44.1 °F 40.8 °F 41.0 °F 89% 29.91 in - SE 5.8 mph - 0.12 in   Unknown
7:52 AM 44.1 °F 41.5 °F 41.0 °F 89% 29.92 in - SSE 4.6 mph - 0.07 in   Unknown
8:52 AM 44.1 °F - 42.1 °F 93% 29.92 in - Calm Calm - 0.13 in   Unknown
9:52 AM 44.1 °F 42.5 °F 42.1 °F 93% 29.93 in - South 3.5 mph - 0.05 in   Unknown
10:52 AM 45.0 °F - 43.0 °F 93% 29.94 in - Calm Calm - 0.05 in   Unknown
11:52 AM 46.0 °F 43.1 °F 43.0 °F 89% 29.94 in - NW 5.8 mph - N/A   Unknown
12:52 PM 46.9 °F - 43.0 °F 86% 29.93 in - North 8.1 mph - 0.01 in   Unknown
1:52 PM 46.9 °F - 42.1 °F 83% 29.95 in - NNW 9.2 mph 18.4 mph N/A   Unknown
2:52 PM 43.0 °F 36.8 °F 37.9 °F 82% 29.99 in - NNW 11.5 mph 21.9 mph N/A   Unknown
3:52 PM 41.0 °F 33.9 °F 36.0 °F 82% 30.02 in - NW 12.7 mph - N/A   Unknown
4:52 PM 37.9 °F 31.5 °F 33.1 °F 83% 30.06 in - NNW 9.2 mph 19.6 mph N/A   Unknown
5:52 PM 36.0 °F 30.3 °F 32.0 °F 86% 30.10 in - NNW 6.9 mph 17.3 mph N/A   Unknown
6:52 PM 34.0 °F 26.0 °F 30.0 °F 85% 30.14 in - NNW 10.4 mph 21.9 mph N/A   Unknown
7:52 PM 34.0 °F 25.5 °F 28.9 °F 82% 30.16 in - NNW 11.5 mph 24.2 mph N/A   Unknown
8:52 PM 35.1 °F 28.6 °F 28.9 °F 78% 30.17 in - NNW 8.1 mph 18.4 mph N/A   Unknown
9:52 PM 35.1 °F 28.6 °F 28.9 °F 78% 30.19 in - NW 8.1 mph - N/A   Unknown
10:52 PM 34.0 °F 28.0 °F 28.0 °F 79% 30.20 in - NNW 6.9 mph - N/A   Unknown
11:52 PM 32.0 °F 26.4 °F 27.0 °F 82% 30.22 in - NNW 5.8 mph - N/A   Unknown